TimePST,TemperatureF,Dew PointF,Humidity,Sea Level PressureIn,VisibilityMPH,Wind Direction,Wind SpeedMPH,Gust SpeedMPH,PrecipitationIn,Events,Conditions,WindDirDegrees,DateUTC
12:53 AM,41.0,37.0,86,30.36,10.0,WNW,3.5,-,N/A,,Partly Cloudy,300,2013-03-01 08:53:00
1:53 AM,39.9,36.0,86,30.38,10.0,West,3.5,-,N/A,,Partly Cloudy,280,2013-03-01 09:53:00
2:53 AM,37.0,34.0,89,30.36,7.0,West,4.6,-,N/A,,Mostly Cloudy,280,2013-03-01 10:53:00
3:53 AM,39.9,37.0,89,30.36,9.0,Calm,Calm,-,N/A,,Overcast,0,2013-03-01 11:53:00
4:53 AM,39.9,36.0,86,30.35,9.0,WNW,3.5,-,N/A,,Overcast,290,2013-03-01 12:53:00
5:53 AM,39.0,35.1,86,30.35,9.0,Calm,Calm,-,N/A,,Mostly Cloudy,0,2013-03-01 13:53:00
6:53 AM,37.0,34.0,89,30.36,6.0,West,5.8,-,N/A,,Mostly Cloudy,270,2013-03-01 14:53:00
7:53 AM,42.1,37.9,85,30.35,6.0,Calm,Calm,-,N/A,,Mostly Cloudy,0,2013-03-01 15:53:00
8:53 AM,45.0,39.9,82,30.35,10.0,NW,4.6,-,N/A,,Scattered Clouds,310,2013-03-01 16:53:00
9:53 AM,51.1,41.0,68,30.35,10.0,NE,3.5,-,N/A,,Scattered Clouds,50,2013-03-01 17:53:00
10:53 AM,53.1,42.1,66,30.34,10.0,ESE,3.5,-,N/A,,Scattered Clouds,120,2013-03-01 18:53:00
11:53 AM,54.0,43.0,66,30.34,10.0,Calm,Calm,-,N/A,,Scattered Clouds,0,2013-03-01 19:53:00
12:53 PM,60.1,45.0,57,30.32,10.0,Calm,Calm,-,N/A,,Clear,0,2013-03-01 20:53:00
1:53 PM,63.0,41.0,45,30.30,10.0,East,4.6,-,N/A,,Clear,80,2013-03-01 21:53:00
2:53 PM,64.0,42.1,45,30.30,10.0,Calm,Calm,-,N/A,,Partly Cloudy,0,2013-03-01 22:53:00
3:53 PM,66.9,41.0,39,30.28,10.0,Variable,5.8,-,N/A,,Partly Cloudy,0,2013-03-01 23:53:00
4:53 PM,62.1,42.1,48,30.29,10.0,SSW,15.0,23.0,N/A,,Partly Cloudy,210,2013-03-02 00:53:00
5:53 PM,59.0,41.0,51,30.29,10.0,SSW,9.2,18.4,N/A,,Clear,200,2013-03-02 01:53:00
6:53 PM,55.0,39.9,57,30.30,10.0,NNW,3.5,-,N/A,,Clear,330,2013-03-02 02:53:00
7:53 PM,46.9,37.9,71,30.30,10.0,Calm,Calm,-,N/A,,Clear,0,2013-03-02 03:53:00
8:53 PM,46.0,37.9,73,30.30,10.0,Calm,Calm,-,N/A,,Clear,0,2013-03-02 04:53:00
9:53 PM,42.1,36.0,79,30.29,10.0,WSW,3.5,-,N/A,,Clear,240,2013-03-02 05:53:00
10:53 PM,39.9,35.1,83,30.30,10.0,West,3.5,-,N/A,,Clear,260,2013-03-02 06:53:00
11:53 PM,39.0,34.0,82,30.29,10.0,WNW,6.9,-,N/A,,Clear,290,2013-03-02 07:53:00